Wind_Speed
13 13 14 16 17 19 21 22 24 25 27 28 29 30 31 33 35 38 40 42 42 42 42 42 42 41 40 39 37 36 35 35 34 32 30 28 25 23 22 22 23 25 26
11 12 13 15 16 17 19 20 21 22 23 25 26 28 29 29 30 32 35 38 41 44 45 46 46 46 45 44 43 41 40 38 38 37 35 33 30 27 25 24 24 25 27
12 13 15 16 18 19 21 22 24 25 27 28 29 31 32 33 33 33 34 35 37 39 43 45 48 49 50 50 49 47 46 44 42 41 40 38 35 31 29 27 26 26 27
15 16 18 20 22 24 26 28 30 32 33 35 36 37 38 40 41 40 40 40 40 40 41 43 45 48 50 52 53 53 51 50 48 45 43 41 39 36 33 31 29 29 28
18 20 22 24 27 29 31 33 35 37 38 40 42 43 45 46 47 48 48 48 48 47 46 45 46 47 48 50 53 55 56 55 53 51 48 45 43 41 38 36 33 32 31
21 24 26 29 32 34 36 38 40 42 44 46 48 49 51 52 53 54 54 55 55 55 55 54 52 51 50 50 51 53 56 58 58 56 54 51 47 45 43 40 38 36 34
26 29 32 35 38 40 43 45 48 50 52 54 56 58 59 61 62 62 63 63 62 62 62 61 60 59 57 56 54 54 54 57 60 60 59 57 54 50 47 44 43 41 39
32 34 37 40 42 45 48 50 53 55 58 60 62 65 67 69 70 71 71 71 71 70 69 68 67 66 65 63 61 59 57 57 58 61 62 61 59 56 52 49 47 46 44
36 38 40 42 45 48 51 54 57 60 63 66 68 71 73 75 76 78 78 78 78 77 76 75 74 72 70 69 68 66 64 61 60 60 62 63 63 62 59 55 52 50 49
37 40 43 46 49 52 56 59 62 65 68 71 73 76 78 80 82 84 85 85 85 84 83 82 80 78 76 74 73 72 70 68 65 63 62 64 65 65 63 61 57 55 53
40 43 47 50 53 56 59 62 65 69 72 74 77 80 83 85 88 90 91 92 92 92 92 90 88 86 83 80 79 77 76 74 72 69 66 65 66 67 66 65 63 60 58
43 47 49 52 55 59 62 65 68 72 76 80 84 87 89 92 94 95 96 97 98 99 99 98 97 94 91 87 84 82 80 79 77 75 72 70 68 68 68 67 66 65 63
46 48 51 54 58 61 65 68 73 78 83 87 89 92 95 96 97 97 97 97 97 97 98 99 100 99 98 95 90 87 85 83 82 80 78 76 73 70 70 69 67 67 66
49 52 55 58 62 65 69 73 78 83 87 90 92 95 96 97 96 93 91 88 86 85 86 87 90 92 95 96 94 91 89 87 86 85 83 82 79 76 73 72 70 68 68
51 55 58 62 65 69 73 78 83 88 91 93 95 96 95 92 88 84 80 78 77 76 76 76 77 79 82 86 89 90 90 91 90 89 88 87 84 82 78 75 73 71 69
54 58 62 65 69 73 78 83 88 91 93 95 95 92 89 84 81 78 76 74 72 71 70 71 72 73 73 75 79 83 87 91 93 93 92 92 90 87 84 81 77 74 72
57 61 65 68 72 77 82 86 89 91 93 93 90 86 83 79 77 76 73 68 64 62 61 62 65 68 70 71 72 76 82 88 92 96 96 96 95 92 89 86 82 78 75
60 64 68 71 75 80 84 88 90 92 92 88 85 82 79 77 74 70 65 58 53 51 50 50 53 58 63 67 69 71 77 85 91 95 98 99 99 97 94 91 87 83 79
63 67 70 74 78 82 86 88 91 91 88 84 81 79 77 74 69 63 56 51 48 46 46 46 46 48 52 58 64 68 71 79 88 94 98 101 103 101 98 95 92 88 83
66 69 72 76 80 83 86 89 90 87 83 81 79 77 75 71 64 57 52 50 49 49 49 48 47 47 47 48 53 61 67 74 83 91 97 102 105 104 102 99 96 92 88
68 71 73 77 81 84 86 88 87 83 79 78 77 76 73 67 61 56 53 53 53 54 54 54 52 50 49 48 47 50 59 69 77 85 93 100 105 106 105 103 99 96 93
69 72 74 78 81 85 88 89 86 80 78 77 75 74 71 65 60 57 56 57 58 59 59 59 58 55 52 52 49 46 49 60 71 80 88 95 102 107 108 106 103 100 96
69 72 75 79 83 87 88 87 82 78 76 75 73 71 67 63 60 59 60 61 63 64 64 64 63 60 56 54 53 49 46 51 62 73 83 90 97 104 108 109 106 103 100
70 73 77 81 85 88 87 84 81 78 76 75 74 70 65 61 61 62 64 67 69 70 70 69 67 64 60 56 54 52 49 46 54 64 76 85 91 98 105 110 109 107 103
71 75 78 82 86 87 86 83 79 78 77 76 73 68 62 60 62 66 69 73 74 74 73 72 69 66 62 58 54 53 51 48 48 57 67 78 87 92 99 107 110 110 106
72 76 79 83 86 86 84 81 78 77 76 75 71 65 62 63 67 72 75 75 73 71 69 67 65 63 60 57 53 51 50 48 48 49 59 70 81 87 91 99 107 110 109
Wind_Direction
299 299 298 297 296 295 294 294 293 293 292 292 291 289 285 280 276 272 269 267 265 263 261 261 260 258 257 257 257 256 256 255 256 256 255 253 251 247 243 238 235 233 231
329 325 322 319 316 314 311 309 306 303 301 298 296 293 291 287 283 279 275 271 268 266 264 262 261 260 258 256 255 255 255 254 254 254 255 254 251 248 245 240 236 233 231
344 337 332 327 322 317 313 310 307 304 302 299 296 294 292 289 286 282 279 275 271 269 266 264 262 260 259 258 256 254 254 253 252 252 252 253 252 249 246 242 237 233 231
343 335 328 322 317 313 310 307 305 303 301 299 297 295 292 290 288 286 283 280 276 272 268 266 264 262 259 257 256 254 252 252 251 251 250 251 250 249 246 242 238 234 231
328 321 316 313 310 308 306 304 303 301 299 297 295 293 291 289 287 285 283 281 278 276 273 269 266 263 261 258 255 253 251 249 249 249 249 249 248 248 245 242 238 234 232
317 314 312 311 310 309 308 306 304 303 301 299 296 294 292 290 287 285 282 280 278 276 274 272 269 266 263 260 257 254 251 248 246 246 247 246 246 246 245 242 238 234 232
316 316 316 316 316 315 313 311 309 307 305 303 300 298 296 293 291 288 285 283 280 277 274 271 269 267 264 262 259 255 252 249 246 244 244 244 244 243 243 242 238 235 231
321 321 321 320 318 317 315 312 310 308 306 304 302 300 298 296 294 291 289 286 283 280 276 273 270 267 264 262 259 256 253 250 248 245 243 242 242 241 240 239 237 235 232
323 323 321 320 318 317 315 314 312 310 308 306 304 301 299 297 295 293 290 287 285 282 278 275 271 267 264 261 258 256 253 250 248 245 243 241 240 239 238 237 236 234 232
323 322 321 321 320 319 317 316 314 311 309 307 304 301 299 296 294 291 289 286 284 281 278 275 272 268 265 261 257 255 252 250 247 245 243 241 239 238 237 236 235 233 232
323 323 323 322 321 319 317 315 313 311 309 306 303 300 297 295 292 290 287 284 281 278 276 273 270 267 264 261 257 253 251 248 246 243 241 240 239 237 236 235 235 233 231
324 323 322 320 319 318 316 314 312 310 308 306 304 302 299 297 294 291 288 285 282 278 275 273 270 267 264 260 256 252 249 246 244 242 240 238 238 237 235 234 234 233 232
323 321 319 319 318 317 315 314 313 311 310 309 307 305 302 299 296 293 290 287 284 281 277 274 271 267 264 260 256 252 247 243 241 240 238 236 235 235 234 233 232 233 232
322 321 320 319 318 317 316 315 315 314 313 311 309 306 303 301 298 296 293 289 286 282 278 275 271 267 264 260 256 251 246 242 239 237 236 234 233 232 232 231 230 230 231
322 321 320 320 319 318 317 318 317 317 315 313 310 308 305 303 301 298 295 291 287 283 278 274 270 266 262 258 254 250 244 240 237 234 233 232 231 229 229 229 228 228 229
323 323 322 321 320 319 320 320 320 319 317 314 312 310 308 306 304 302 299 295 291 286 281 275 269 264 261 257 252 247 241 238 235 232 230 229 229 228 227 227 226 226 227
324 324 323 322 322 322 323 323 321 319 318 316 314 312 311 310 308 306 303 300 295 290 285 279 272 266 260 256 251 245 239 234 231 230 228 227 227 226 225 224 224 224 224
325 325 324 324 324 325 325 324 322 320 319 318 316 315 314 313 311 308 305 301 297 294 290 286 279 271 263 257 250 245 239 232 228 227 226 225 224 224 223 223 222 222 222
326 326 325 326 327 327 326 324 323 322 321 320 319 317 316 314 312 308 304 300 298 296 295 293 289 282 272 261 252 245 239 234 229 225 223 223 222 222 221 221 221 221 221
328 327 328 328 328 327 326 324 324 324 323 322 320 319 318 315 311 306 301 298 296 295 294 293 292 289 283 273 260 248 239 235 231 226 222 221 221 220 220 220 219 219 219
329 330 330 329 328 327 326 325 325 325 324 323 322 321 319 315 310 305 300 296 295 293 292 290 289 287 285 281 271 255 243 235 231 228 223 220 219 219 218 218 218 217 217
331 331 330 330 329 328 327 327 327 327 326 325 325 323 319 314 309 304 299 296 293 292 290 288 286 283 281 279 274 265 249 238 232 228 225 222 218 217 217 217 216 216 216
332 331 331 331 330 328 328 329 329 329 328 326 326 324 320 314 309 304 300 297 294 291 288 286 282 279 276 274 272 268 258 242 233 229 226 223 220 217 216 216 215 215 215
333 332 332 332 330 330 330 331 331 331 330 329 329 326 323 318 313 309 305 300 296 291 287 283 279 276 272 269 266 265 260 250 236 229 227 224 221 218 216 215 214 214 214
334 334 334 333 332 331 332 333 333 333 332 332 331 329 326 322 317 313 308 303 298 293 288 283 277 272 268 264 260 258 257 253 242 230 225 225 221 219 217 215 214 214 213
335 335 335 334 333 333 334 335 335 334 334 334 333 331 329 326 322 317 312 307 302 297 290 283 276 269 264 260 256 252 251 250 246 234 224 223 222 220 218 215 213 213 212
Height
5868 5867 5866 5865 5864 5864 5863 5862 5861 5860 5859 5857 5856 5855 5854 5854 5854 5853 5853 5852 5852 5852 5852 5852 5853 5854 5855 5856 5856 5857 5858 5858 5858 5859 5860 5861 5862 5863 5865 5866 5868 5869 5871
5866 5865 5864 5863 5862 5861 5860 5859 5857 5856 5854 5853 5851 5850 5848 5847 5846 5845 5844 5844 5844 5843 5844 5844 5845 5845 5846 5848 5849 5850 5851 5852 5853 5854 5854 5855 5857 5858 5860 5862 5863 5864 5866
5865 5864 5863 5862 5860 5859 5857 5855 5854 5852 5850 5849 5847 5845 5843 5841 5839 5838 5836 5835 5834 5834 5834 5834 5835 5836 5837 5838 5840 5842 5843 5845 5846 5847 5848 5850 5851 5853 5855 5856 5858 5859 5861
5864 5863 5861 5860 5858 5856 5854 5852 5850 5848 5846 5843 5841 5839 5837 5834 5832 5831 5829 5827 5826 5825 5824 5824 5824 5824 5826 5827 5829 5831 5833 5836 5838 5839 5841 5843 5845 5847 5849 5850 5852 5854 5856
5863 5861 5859 5856 5854 5852 5850 5847 5844 5842 5839 5837 5834 5831 5828 5826 5823 5821 5820 5818 5817 5816 5814 5815 5814 5814 5814 5815 5816 5819 5821 5825 5828 5830 5833 5835 5837 5840 5842 5844 5846 5848 5851
5860 5858 5855 5852 5849 5846 5843 5840 5837 5834 5831 5828 5825 5821 5818 5815 5812 5810 5808 5806 5805 5804 5803 5803 5803 5803 5803 5803 5804 5806 5808 5812 5815 5819 5822 5825 5828 5831 5835 5837 5839 5842 5844
5856 5853 5850 5846 5843 5839 5835 5831 5828 5824 5820 5816 5812 5809 5805 5801 5798 5795 5793 5791 5790 5788 5788 5788 5788 5789 5790 5791 5792 5793 5795 5798 5801 5806 5810 5814 5818 5821 5825 5829 5832 5834 5837
5851 5848 5844 5840 5836 5832 5827 5823 5818 5814 5809 5804 5799 5794 5789 5785 5781 5777 5774 5772 5771 5770 5769 5769 5770 5771 5773 5775 5777 5779 5781 5784 5788 5792 5796 5800 5805 5810 5814 5818 5822 5826 5829
5846 5842 5838 5834 5830 5825 5820 5814 5808 5803 5797 5791 5785 5779 5773 5767 5762 5758 5754 5751 5749 5747 5747 5747 5749 5751 5753 5756 5758 5762 5766 5769 5773 5777 5781 5785 5789 5795 5801 5806 5811 5815 5819
5841 5836 5832 5827 5821 5815 5810 5803 5797 5791 5785 5778 5771 5764 5757 5750 5743 5737 5733 5729 5725 5723 5722 5722 5723 5726 5730 5733 5737 5741 5747 5752 5756 5761 5766 5770 5774 5780 5787 5793 5798 5803 5808
5835 5829 5824 5818 5812 5806 5800 5793 5786 5778 5771 5764 5756 5748 5739 5730 5722 5714 5708 5703 5698 5695 5694 5693 5695 5698 5703 5707 5712 5718 5724 5731 5737 5743 5749 5754 5759 5764 5771 5778 5784 5790 5796
5828 5823 5817 5811 5804 5797 5790 5782 5774 5765 5756 5746 5736 5725 5715 5705 5695 5687 5679 5672 5667 5664 5662 5662 5663 5667 5673 5679 5685 5691 5699 5707 5714 5722 5729 5736 5742 5748 5755 5762 5769 5776 5783
5822 5816 5810 5803 5795 5786 5778 5769 5759 5749 5738 5726 5714 5701 5689 5677 5667 5657 5649 5641 5635 5630 5628 5628 5629 5633 5638 5646 5654 5662 5671 5680 5689 5698 5708 5715 5723 5731 5738 5745 5753 5761 5768
5814 5808 5800 5791 5783 5773 5764 5754 5743 5731 5719 5706 5693 5679 5665 5652 5640 5629 5619 5612 5605 5600 5596 5594 5595 5598 5603 5610 5620 5630 5640 5651 5661 5672 5684 5692 5702 5711 5719 5728 5736 5745 5753
5808 5799 5790 5781 5771 5761 5750 5738 5725 5711 5697 5683 5668 5654 5639 5626 5614 5603 5593 5585 5578 5572 5568 5566 5565 5566 5570 5576 5584 5595 5608 5619 5632 5644 5657 5668 5679 5689 5699 5709 5719 5728 5737
5799 5790 5780 5770 5759 5747 5734 5720 5706 5691 5675 5659 5643 5628 5613 5600 5589 5578 5569 5562 5554 5548 5543 5540 5539 5540 5542 5546 5553 5561 5574 5587 5601 5614 5628 5641 5654 5666 5677 5689 5699 5710 5721
5790 5779 5769 5758 5745 5732 5717 5702 5687 5671 5655 5638 5621 5605 5591 5578 5567 5555 5546 5538 5531 5525 5520 5516 5515 5515 5517 5520 5526 5532 5542 5555 5568 5582 5598 5613 5627 5640 5653 5667 5680 5692 5703
5780 5769 5757 5745 5731 5716 5701 5685 5667 5650 5633 5616 5600 5585 5571 5558 5547 5536 5526 5518 5512 5506 5501 5497 5494 5492 5493 5495 5501 5507 5514 5525 5536 5551 5568 5584 5599 5614 5629 5645 5659 5672 5685
5770 5758 5746 5732 5717 5702 5685 5667 5649 5630 5613 5596 5581 5566 5553 5540 5528 5518 5510 5502 5496 5491 5485 5481 5477 5473 5472 5472 5476 5483 5490 5497 5507 5521 5538 5554 5570 5587 5605 5621 5637 5652 5666
5760 5747 5733 5718 5703 5688 5670 5652 5632 5613 5595 5579 5564 5549 5536 5523 5511 5502 5494 5487 5481 5476 5470 5465 5461 5458 5455 5453 5455 5460 5466 5472 5481 5494 5509 5524 5541 5561 5579 5596 5613 5630 5645
5749 5735 5720 5706 5691 5674 5656 5638 5620 5602 5583 5566 5549 5533 5519 5506 5495 5486 5478 5472 5465 5459 5454 5449 5445 5442 5439 5436 5436 5440 5445 5450 5457 5469 5481 5495 5514 5534 5553 5571 5589 5607 5625
5738 5723 5709 5694 5677 5658 5640 5621 5602 5585 5568 5551 5534 5517 5502 5489 5478 5469 5462 5454 5447 5441 5435 5429 5425 5423 5422 5419 5418 5420 5426 5431 5436 5446 5456 5469 5487 5507 5527 5546 5566 5585 5603
5727 5713 5698 5681 5663 5644 5624 5606 5589 5572 5555 5539 5523 5506 5489 5475 5463 5453 5444 5435 5427 5420 5413 5408 5404 5402 5403 5401 5399 5401 5405 5411 5417 5426 5435 5447 5463 5481 5501 5521 5542 5562 5581
5718 5702 5686 5668 5648 5629 5609 5591 5574 5558 5542 5525 5508 5491 5475 5460 5448 5436 5426 5414 5403 5394 5387 5381 5378 5377 5379 5382 5382 5383 5386 5390 5397 5407 5416 5427 5441 5457 5476 5496 5518 5538 5558
5708 5691 5674 5655 5635 5615 5596 5578 5561 5544 5526 5510 5493 5477 5462 5448 5434 5419 5405 5390 5376 5365 5356 5351 5349 5350 5353 5358 5362 5365 5369 5373 5378 5387 5399 5408 5421 5436 5452 5472 5493 5515 5536
5698 5681 5663 5644 5624 5605 5586 5567 5550 5533 5515 5498 5481 5465 5451 5436 5419 5400 5381 5363 5346 5333 5324 5318 5318 5321 5326 5333 5341 5347 5352 5357 5362 5369 5381 5391 5403 5417 5432 5449 5470 5492 5513